Location: Alma
(38.7220°N, 88.9090°W)
Time: 07:24:43
(UTC-06:00)

Vanguard 2 - Pass Details

Date: 21 November 2019
Orbit: 553 x 2938 km, 32.9° (Epoch: 14 December)

Event Time Altitude Azimuth Distance (km) Brightness Sun altitude
Rises 09:01:10 0° 256° (WSW) 5,515 11.6 20.4°
Reaches altitude 10° 09:05:29 10° 253° (WSW) 4,120 11.1 20.9°
Maximum altitude 09:15:16 55° 179° (S) 1,401 9.7 22.1°
Drops below altitude 10° 09:21:09 10° 102° (ESE) 2,524 11.0 22.8°
Sets 09:23:14 0° 98° (E) 3,264 11.4 23.0°
